Weather History for Morris, MN

Change the Weather History Date:

Sunday, February 10, 2013

  Actual Average Record
Temperature  
Mean Temperature 27 °F -  
Max Temperature 30 °F 23 °F 41 °F (1999)
Min Temperature 24 °F 6 °F -20 °F (2011)
Degree Days  
Heating Degree Days 38    
Moisture  
Dew Point 25 °F    
Average Humidity 92    
Maximum Humidity 100    
Minimum Humidity 86    
Precipitation  
Precipitation 0.08 in - - ()
Sea Level Pressure  
Sea Level Pressure 29.51 in    
Wind  
Wind Speed 18 mph (NE)    
Max Wind Speed 29 mph    
Max Gust Speed 36 mph    
Visibility 3 miles    
Events Snow    
Averages and records for this station are not official NWS values.
T = Trace of Precipitation, MM = Missing Value Source: NWS Daily Summary

Daily Weather History Graph

Daily Weather History Graph

Search for Another Location

Airport:

Trip Planner

Search our weather history database for the weather conditions in past years. The results will help you decide how hot, cold, wet, or windy it might be!

Date:

Astronomy

Feb. 10, 2013 Rise Set
Actual Time 7:32 AM CST 5:44 PM CST
Civil Twilight 7:01 AM CST 6:14 PM CST
Nautical Twilight 6:27 AM CST 6:49 PM CST
Astronomical Twilight 5:52 AM CST 7:24 PM CST
Moon 7:19 AM CST (2/10) 6:41 PM CST (2/10)
Length of Visible Light 11h 12m
Length of Day
10h 11m
New Moon, 0% of the Moon is Illuminated
Feb 10
New Moon
Feb 17
First Quarter
Feb 25
Full
Mar 4
Last Quarter
Mar 11
New

Hourly Weather History & Observations

Time (CST) Temp. Windchill Dew Point Humidity Pressure Visibility Wind Dir Wind Speed Gust Speed Precip Events Conditions
12:12 AM 30.2 °F 19.3 °F 30.2 °F 100% 29.78 in 0.5 mi ESE 15.0 mph - 0.01 in Snow Snow
12:32 AM 30.2 °F 18.9 °F 30.2 °F 100% 29.78 in 1.0 mi ESE 16.1 mph - 0.01 in Snow Snow
12:52 AM 30.2 °F 19.8 °F 28.4 °F 93% 29.77 in 0.8 mi ESE 13.8 mph 21.9 mph 0.01 in Snow Snow
1:12 AM 30.2 °F 19.3 °F 28.4 °F 93% 29.76 in 1.0 mi ESE 15.0 mph - N/A Snow Light Snow
1:32 AM 30.2 °F 18.9 °F 28.4 °F 93% 29.75 in 1.8 mi ESE 16.1 mph - N/A Snow Light Snow
1:52 AM 30.2 °F 17.8 °F 28.4 °F 93% 29.74 in 2.0 mi SE 19.6 mph 24.2 mph N/A Snow Light Snow
2:32 AM 30.2 °F 18.5 °F 26.6 °F 86% 29.74 in 4.0 mi ESE 17.3 mph - N/A   Overcast
2:52 AM 28.4 °F 16.6 °F 26.6 °F 93% 29.73 in 4.0 mi ESE 16.1 mph - N/A   Overcast
3:12 AM 28.4 °F 15.8 °F 26.6 °F 93% 29.71 in 4.0 mi ESE 18.4 mph - N/A   Overcast
3:32 AM 28.4 °F 16.2 °F 26.6 °F 93% 29.68 in 4.0 mi ESE 17.3 mph - N/A   Overcast
3:52 AM 28.4 °F 15.4 °F 26.6 °F 93% 29.67 in 4.0 mi East 19.6 mph - N/A   Overcast
4:12 AM 28.4 °F 16.6 °F 26.6 °F 93% 29.67 in 4.0 mi East 16.1 mph - N/A   Overcast
4:32 AM 28.4 °F 16.2 °F 26.6 °F 93% 29.66 in 4.0 mi East 17.3 mph - N/A   Overcast
4:52 AM 28.4 °F 15.8 °F 26.6 °F 93% 29.64 in 2.0 mi East 18.4 mph - N/A Snow Light Snow
5:12 AM 28.4 °F 16.2 °F 26.6 °F 93% 29.65 in 2.5 mi East 17.3 mph - N/A Snow Light Snow
5:32 AM 28.4 °F 16.2 °F 26.6 °F 93% 29.66 in 2.5 mi East 17.3 mph - N/A Snow Light Snow
5:52 AM 28.4 °F 17.0 °F 26.6 °F 93% 29.61 in 1.8 mi East 15.0 mph - N/A Snow Light Snow
6:12 AM 28.4 °F 16.6 °F 26.6 °F 93% 29.59 in 2.5 mi East 16.1 mph - N/A Snow Light Snow
6:32 AM 28.4 °F 17.0 °F 26.6 °F 93% 29.59 in 1.5 mi East 15.0 mph - N/A Snow Light Snow
6:52 AM 28.4 °F 15.4 °F 26.6 °F 93% 29.60 in 3.0 mi East 19.6 mph 24.2 mph N/A Snow Light Snow
7:12 AM 28.4 °F 15.1 °F 26.6 °F 93% 29.58 in 0.8 mi East 20.7 mph 27.6 mph 0.01 in Snow Snow
7:32 AM 28.4 °F 16.2 °F 26.6 °F 93% 29.55 in 1.5 mi ENE 17.3 mph - 0.01 in Snow Light Snow
7:52 AM 28.4 °F 14.7 °F 26.6 °F 93% 29.53 in 1.2 mi ENE 21.9 mph 25.3 mph 0.01 in Snow Light Snow
8:12 AM 28.4 °F 14.7 °F 26.6 °F 93% 29.56 in 0.2 mi ENE 21.9 mph 26.5 mph 0.01 in Snow Snow
8:32 AM 28.4 °F 15.8 °F 26.6 °F 93% 29.55 in 0.5 mi ENE 18.4 mph 21.9 mph 0.01 in Snow Light Snow
8:52 AM 26.6 °F 13.1 °F 26.6 °F 100% 29.53 in 0.5 mi ENE 19.6 mph - 0.02 in Snow Snow
9:12 AM 26.6 °F 13.4 °F 26.6 °F 100% 29.54 in 0.2 mi ENE 18.4 mph 24.2 mph 0.01 in Snow Snow
9:32 AM 26.6 °F 14.3 °F 26.6 °F 100% 29.53 in 0.2 mi ENE 16.1 mph 24.2 mph 0.01 in Snow Snow
9:52 AM 26.6 °F 13.8 °F 24.8 °F 93% 29.52 in 0.5 mi ENE 17.3 mph - 0.02 in Snow Snow
10:12 AM 26.6 °F 13.4 °F 24.8 °F 93% 29.50 in 0.2 mi ENE 18.4 mph - N/A Snow Snow
10:32 AM 26.6 °F 12.7 °F 24.8 °F 93% 29.50 in 0.2 mi ENE 20.7 mph 26.5 mph 0.01 in Snow Heavy Snow
10:52 AM 26.6 °F 13.4 °F 24.8 °F 93% 29.47 in 0.5 mi ENE 18.4 mph 25.3 mph 0.01 in Snow Snow
11:12 AM 28.4 °F 14.7 °F 24.8 °F 86% 29.47 in 0.2 mi ENE 21.9 mph - N/A Snow Snow
11:32 AM 28.4 °F 15.1 °F 24.8 °F 86% 29.46 in 0.5 mi ENE 20.7 mph 25.3 mph N/A Snow Light Snow
11:52 AM 26.6 °F 13.4 °F 24.8 °F 93% 29.43 in 0.5 mi ENE 18.4 mph 26.5 mph N/A Snow Light Snow
12:12 PM 26.6 °F 12.7 °F 24.8 °F 93% 29.43 in 0.5 mi ENE 20.7 mph - N/A Snow Snow
12:32 PM 26.6 °F 13.4 °F 24.8 °F 93% 29.41 in 0.2 mi ENE 18.4 mph 25.3 mph 0.01 in Snow Snow
12:52 PM 28.4 °F 15.8 °F 24.8 °F 86% 29.39 in 0.8 mi ENE 18.4 mph 25.3 mph 0.01 in Snow Light Snow
1:12 PM 28.4 °F 15.1 °F 24.8 °F 86% 29.37 in 1.0 mi ENE 20.7 mph 26.5 mph N/A Snow Light Snow
1:32 PM 28.4 °F 14.4 °F 24.8 °F 86% 29.38 in 1.2 mi ENE 23.0 mph 27.6 mph N/A Snow Light Snow
1:52 PM 28.4 °F 14.1 °F 24.8 °F 86% 29.37 in 1.8 mi ENE 24.2 mph 29.9 mph N/A   Mostly Cloudy
2:12 PM 28.4 °F 15.8 °F 24.8 °F 86% 29.36 in 2.5 mi NE 18.4 mph - N/A   Overcast
2:32 PM 26.6 °F 13.1 °F 24.8 °F 93% 29.36 in 4.0 mi ENE 19.6 mph 23.0 mph N/A   Overcast
2:52 PM 26.6 °F 13.4 °F 23.0 °F 86% 29.36 in 4.0 mi NE 18.4 mph - N/A   Overcast
3:12 PM 26.6 °F 13.1 °F 23.0 °F 86% 29.36 in 3.0 mi NE 19.6 mph 23.0 mph N/A   Overcast
3:32 PM 26.6 °F 14.7 °F 23.0 °F 86% 29.36 in 2.5 mi NE 15.0 mph 18.4 mph N/A   Mostly Cloudy
3:52 PM 26.6 °F 14.3 °F 23.0 °F 86% 29.36 in 4.0 mi NE 16.1 mph - N/A Snow Light Snow
4:12 PM 26.6 °F 14.3 °F 23.0 °F 86% 29.36 in 5.0 mi NE 16.1 mph 21.9 mph N/A   Overcast
4:32 PM 26.6 °F 13.8 °F 23.0 °F 86% 29.36 in 5.0 mi NE 17.3 mph - N/A   Overcast
4:52 PM 26.6 °F 13.8 °F 23.0 °F 86% 29.37 in 5.0 mi NE 17.3 mph - N/A   Overcast
5:12 PM 26.6 °F 15.7 °F 23.0 °F 86% 29.38 in 7.0 mi NNE 12.7 mph 21.9 mph N/A   Overcast
5:32 PM 26.6 °F 16.8 °F 23.0 °F 86% 29.39 in 10.0 mi North 10.4 mph - N/A   Overcast
5:52 PM 26.6 °F 16.2 °F 23.0 °F 86% 29.39 in 10.0 mi NNW 11.5 mph - N/A   Overcast
6:12 PM 26.6 °F 14.3 °F 23.0 °F 86% 29.40 in 7.0 mi NNW 16.1 mph - N/A   Overcast
6:32 PM 26.6 °F 13.8 °F 24.8 °F 93% 29.40 in 7.0 mi NNW 17.3 mph - N/A   Overcast
6:52 PM 26.6 °F 12.7 °F 24.8 °F 93% 29.41 in 7.0 mi NNW 20.7 mph - N/A   Overcast
7:12 PM 26.6 °F 13.1 °F 24.8 °F 93% 29.42 in 5.0 mi NNW 19.6 mph 25.3 mph N/A   Overcast
7:32 PM 26.6 °F 12.7 °F 24.8 °F 93% 29.42 in 5.0 mi NNW 20.7 mph 24.2 mph N/A   Overcast
7:52 PM 26.6 °F 12.7 °F 24.8 °F 93% 29.42 in 4.0 mi North 20.7 mph - N/A   Overcast
8:12 PM 26.6 °F 12.4 °F 24.8 °F 93% 29.42 in 4.0 mi North 21.9 mph - N/A Snow Light Snow
8:32 PM 26.6 °F 12.0 °F 24.8 °F 93% 29.43 in 4.0 mi NNW 23.0 mph 28.8 mph N/A   Overcast
8:52 PM 26.6 °F 11.7 °F 24.8 °F 93% 29.44 in 3.0 mi NNW 24.2 mph 29.9 mph N/A   Overcast
9:12 PM 26.6 °F 11.7 °F 24.8 °F 93% 29.44 in 2.0 mi NNW 24.2 mph 29.9 mph N/A Snow Light Snow
9:32 PM 26.6 °F 11.1 °F 24.8 °F 93% 29.45 in 2.5 mi NNW 26.5 mph - N/A Snow Light Snow
9:52 PM 26.6 °F 10.8 °F 24.8 °F 93% 29.46 in 3.0 mi NNW 27.6 mph 31.1 mph N/A   Overcast
10:12 PM 26.6 °F 11.1 °F 24.8 °F 93% 29.47 in 3.0 mi NNW 26.5 mph 32.2 mph N/A   Overcast
10:32 PM 26.6 °F 11.1 °F 24.8 °F 93% 29.47 in 2.0 mi NNW 26.5 mph 33.4 mph N/A   Overcast
10:52 PM 26.6 °F 11.1 °F 24.8 °F 93% 29.48 in 1.8 mi NNW 26.5 mph - N/A Snow Light Snow
11:12 PM 24.8 °F 8.4 °F 23.0 °F 93% 29.49 in 1.8 mi NNW 27.6 mph 35.7 mph N/A Snow Light Snow
11:32 PM 24.8 °F 9.0 °F 23.0 °F 93% 29.51 in 2.0 mi NNW 25.3 mph 33.4 mph N/A Snow Light Snow
11:52 PM 24.8 °F 8.1 °F 23.0 °F 93% 29.52 in 1.8 mi NNW 28.8 mph 33.4 mph N/A Snow Light Snow